Location: Oulou
(10.7667°N, 12.5167°W)
Time: 22:56:09
(UTC+00:00)

Cosmos 1709 Rocket - Pass Details

Date: 20 September 2019
Orbit: 949 x 1001 km, 82.9° (Epoch: 15 October)

Event Time Altitude Azimuth Distance (km) Brightness Sun altitude
Rises 18:58:21 0° 355° (N) 3,695 7.1 -3.5°
Reaches altitude 10° 19:00:51 10° 355° (N) 2,752 6.5 -4.1°
Maximum altitude 19:07:12 84° 268° (W) 1,006 4.2 -5.6°
Drops below altitude 10° 19:13:34 10° 179° (S) 2,765 6.4 -7.2°
Sets 19:16:05 0° 179° (S) 3,714 7.0 -7.8°
